Regional Weather Roundup
Issued by NWS Goodland, KS

Home | Current Version | Previous Version | Text Only | Print | Product List | Glossary On
Versions: 1 2 3 4 5 6 7 8 9 10 11 12 13 14 15 16 17 18 19 20 21 22 23 24 25 26 27 28 29 30 31 32 33 34 35 36 37 38 39 40 41 42 43 44 45 46 47 48 49 50
000
ASUS43 KGLD 070108
RWRGLD

GOODLAND FORECAST AREA HOURLY WEATHER ROUNDUP
NATIONAL WEATHER SERVICE GOODLAND KS
600 PM MST SAT FEB 06 2016

...OFFICIAL OBSERVATIONS...

CITY           SKY/WX    TMP DP  RH WIND       PRES   REMARKS
GOODLAND KS    CLOUDY    37  26  64 W14       30.07F
HILL CITY KS   CLOUDY    38  28  67 W8        30.08F
IMPERIAL NEB   CLOUDY    33  25  72 W8        30.01F
MCCOOK NEB     PTCLDY    36  26  67 W9        30.02F
AKRON CO       CLOUDY    37  24  59 SW18      30.04F
BURLINGTON CO  CLOUDY    34  21  59 SW16      30.09S
LIMON CO       CLOUDY    16  12  84 N9        30.12S
$$

...UNOFFICIAL OBSERVATIONS...

CITY           SKY/WX    TMP DP  RH WIND       PRES   REMARKS
COLBY KS       CLEAR     37  30  75 SW12      30.07F
GOVE KS          N/A     39  32  76 MISG        N/A
LENORA KS        N/A     38  32  79 MISG        N/A
NORTON KS      CLEAR     36  27  69 SW13      30.03
SHARON SPRINGS   N/A     36  29  74 SW7         N/A
KIT CARSON CO    N/A     32  22  67 MISG        N/A
YUMA CO          N/A     36  28  72 W13         N/A
$$



USA.gov is the U.S. government's official web portal to all federal, state and local government web resources and services.